Weather at Winding Creek Airport

Public forecast

Using degrees Fahrenheit for public forecast. Weather courtesy of forecast.io.

Closest aviation weather report (METAR) to Winding Creek Airport

Closest report is New River MCAS /H/ /Mccutcheon Fld/ Airport, 8.5 nm (15.8 km) N. Retrieved 2020/10/26 18:20 UTC (5 minutes ago):

KNCA 261820Z 32008KT 10SM OVC010 18/15 A3008 RMK AO2 T01830150

Closest aviation forecast (TAF) to Winding Creek Airport

Forecast is more than 12 hours old.

Closest forecast is New River MCAS /H/ /Mccutcheon Fld/ Airport, 8.5 nm (15.8 km) N. Retrieved 2014/12/02 09:26 UTC (6 years ago):

TAF KNCA 020900Z 0209/0309 VRB06KT 2400 BR SCT002 QNH3032INS TEMPO 0209/0213 0400 FG VV002 BECMG 0213/0215 05007KT 9999 SCT007 BKN015 QNH3036INS FM030200 VRB03KT 2400 BR BKN007 QNH3034INS T09/0211Z T16/0219Z